SCP
2 2 3 3 2 2 2 3 5 6 4 2 0 0 0 0 0 0 0 0 1 0
3 3 3 3 5 3 5 8 5 3 2 1 1 1 0 0 0 0 0 0 0 0
4 3 5 5 5 9 6 4 3 2 1 1 1 1 1 0 0 0 0 0 0 0
5 4 4 5 9 7 4 3 2 1 1 1 1 1 1 0 0 0 0 0 0 0
6 4 8 9 6 4 4 2 1 1 1 1 1 0 0 0 0 0 0 0 0 0
6 6 10 7 4 4 3 2 2 1 1 0 0 0 0 0 0 0 0 0 0 0
7 11 8 7 5 4 3 3 2 1 0 0 0 0 0 0 0 0 0 0 0 0
9 8 7 6 6 5 3 1 0 0 0 0 0 0 0 0 0 0 0 0 0 0
6 5 5 5 5 2 1 0 0 0 0 0 0 0 0 0 0 0 0 0 0 0
2 2 1 1 1 0 0 0 0 0 0 0 0 0 0 0 0 0 0 0 0 0
0 0 0 0 0 0 0 0 0 0 0 0 0 0 0 0 0 0 0 0 0 0
0 0 0 0 0 0 0 0 0 0 0 0 0 0 0 0 0 0 0 0 0 0
0 0 0 0 0 0 0 0 0 0 0 0 0 0 0 0 0 0 0 0 0 0
0 0 0 0 0 0 0 0 0 0 0 0 0 0 0 0 0 0 0 0 0 0
Wind_Speed_500mb
72 70 77 76 51 50 43 48 48 54 56 50 43 35 21 7 17 18 14 17 16 36
70 67 58 66 62 46 49 59 52 55 53 47 38 32 19 26 34 29 28 25 23 29
76 65 60 63 64 66 63 51 48 50 46 44 38 34 33 38 38 34 26 19 23 29
59 60 59 59 70 71 55 50 42 42 49 46 49 44 42 41 36 27 23 23 23 26
56 59 65 72 67 64 58 51 44 49 52 56 56 53 45 44 31 26 27 24 19 26
59 61 75 73 63 63 57 57 51 54 57 58 55 49 47 37 29 25 25 21 21 19
64 73 76 71 61 67 64 63 62 58 57 55 52 51 36 33 34 27 24 18 15 15
72 75 70 65 79 69 71 65 62 63 58 59 52 45 45 39 31 23 19 15 15 17
80 78 73 80 82 75 71 67 64 63 60 56 54 48 38 34 26 20 18 15 12 11
83 78 73 79 88 74 72 69 68 61 58 58 49 44 39 32 24 19 17 12 8 8
80 80 83 99 86 79 76 72 67 62 57 51 48 43 36 28 25 23 19 14 12 10
84 90 96 88 84 81 83 75 67 60 52 50 46 38 34 30 26 24 20 16 16 9
83 89 93 92 89 84 83 79 71 59 50 48 47 44 36 27 24 25 21 13 12 10
88 91 93 91 85 89 78 70 64 61 54 50 43 41 34 34 20 21 22 16 12 12
Wind_Direction_500mb
211 212 216 219 212 208 188 185 194 190 198 206 213 214 194 114 151 164 206 242 265 266
213 206 203 214 209 202 187 194 202 199 206 213 220 215 187 182 182 201 196 228 257 254
209 206 203 209 205 197 198 196 194 197 203 217 222 188 201 196 198 211 221 248 253 261
195 193 191 191 197 201 195 191 189 197 200 207 193 194 201 201 205 220 227 234 246 256
187 183 186 191 196 193 187 183 182 187 191 190 193 204 207 198 215 216 229 233 239 259
183 179 189 190 185 179 180 178 183 181 189 198 204 213 199 205 207 211 224 233 247 259
181 184 191 187 183 178 178 176 181 187 192 201 199 189 201 201 203 202 220 233 246 252
181 187 186 179 175 173 178 183 183 186 189 187 190 195 195 193 195 209 225 230 234 251
184 189 188 179 184 183 176 174 181 182 184 182 184 186 189 192 197 206 208 209 225 251
192 187 186 182 184 175 170 174 173 174 176 178 180 183 186 196 192 179 174 180 171 136
187 181 179 181 177 167 168 168 169 168 171 176 177 181 190 193 177 171 171 173 170 159
182 176 177 175 166 164 163 162 161 167 171 175 172 171 174 174 162 161 156 145 153 152
175 175 171 169 162 158 159 163 165 161 165 168 166 164 165 147 143 141 141 147 185 203
167 169 165 158 155 156 155 149 148 157 154 159 164 160 163 150 147 150 136 144 134 150
Wind_Speed_850mb
72 70 77 76 51 50 43 48 48 54 56 50 43 35 21 7 17 18 14 17 16 36
70 67 58 66 62 46 49 59 52 55 53 47 38 32 19 26 34 29 28 25 23 29
76 65 60 63 64 66 63 51 48 50 46 44 38 34 33 38 38 34 26 19 23 29
59 60 59 59 70 71 55 50 42 42 49 46 49 44 42 41 36 27 23 23 23 26
56 59 65 72 67 64 58 51 44 49 52 56 56 53 45 44 31 26 27 24 19 26
59 61 75 73 63 63 57 57 51 54 57 58 55 49 47 37 29 25 25 21 21 19
64 73 76 71 61 67 64 63 62 58 57 55 52 51 36 33 34 27 24 18 15 15
72 75 70 65 79 69 71 65 62 63 58 59 52 45 45 39 31 23 19 15 15 17
80 78 73 80 82 75 71 67 64 63 60 56 54 48 38 34 26 20 18 15 12 11
83 78 73 79 88 74 72 69 68 61 58 58 49 44 39 32 24 19 17 12 8 8
80 80 83 99 86 79 76 72 67 62 57 51 48 43 36 28 25 23 19 14 12 10
84 90 96 88 84 81 83 75 67 60 52 50 46 38 34 30 26 24 20 16 16 9
83 89 93 92 89 84 83 79 71 59 50 48 47 44 36 27 24 25 21 13 12 10
88 91 93 91 85 89 78 70 64 61 54 50 43 41 34 34 20 21 22 16 12 12
Wind_Direction_850mb
211 212 216 219 212 208 188 185 194 190 198 206 213 214 194 114 151 164 206 242 265 266
213 206 203 214 209 202 187 194 202 199 206 213 220 215 187 182 182 201 196 228 257 254
209 206 203 209 205 197 198 196 194 197 203 217 222 188 201 196 198 211 221 248 253 261
195 193 191 191 197 201 195 191 189 197 200 207 193 194 201 201 205 220 227 234 246 256
187 183 186 191 196 193 187 183 182 187 191 190 193 204 207 198 215 216 229 233 239 259
183 179 189 190 185 179 180 178 183 181 189 198 204 213 199 205 207 211 224 233 247 259
181 184 191 187 183 178 178 176 181 187 192 201 199 189 201 201 203 202 220 233 246 252
181 187 186 179 175 173 178 183 183 186 189 187 190 195 195 193 195 209 225 230 234 251
184 189 188 179 184 183 176 174 181 182 184 182 184 186 189 192 197 206 208 209 225 251
192 187 186 182 184 175 170 174 173 174 176 178 180 183 186 196 192 179 174 180 171 136
187 181 179 181 177 167 168 168 169 168 171 176 177 181 190 193 177 171 171 173 170 159
182 176 177 175 166 164 163 162 161 167 171 175 172 171 174 174 162 161 156 145 153 152
175 175 171 169 162 158 159 163 165 161 165 168 166 164 165 147 143 141 141 147 185 203
167 169 165 158 155 156 155 149 148 157 154 159 164 160 163 150 147 150 136 144 134 150